星链-3457 (STARLINK-3457 )

导读

STARLINK-3457是美国SpaceX公司星链星座的成员卫星,于2022年2月21日发射入轨。星链星座旨在构建全球低轨宽带互联网系统,该卫星作为量产型星链卫星,采用平板设计搭配单太阳翼,配备氪工质霍尔推进器,具备自主避撞能力。运行在近地轨道,为全球偏远地区及各类场景提供高速网络连接服务,寿命末期会主动离轨再入大气层销毁,减少空间垃圾影响。

基本信息
目录编号:
51754
目录名称:
STARLINK-3457
国际标识:
2022-016AS
轨道中心:
EARTH
卫星名称:
星链-3457
卫星全名:
星链-3457 (STARLINK-3457 )
卫星状态:
在轨 (已飞行1577 天)
发射日期:
2022-02-21 UTC
国别 :
美国 (US)
星等 :
--
轨道信息
数据来源 国际轨道数据
星历时间: 2026-06-17T18:12:24+0800
7小时前
查看轨道信息
半长轴: 6917.886km
偏心率: 0.0001178
轨道倾角: 53.160°
近地点辐角 84.672°
升交点赤经 221.051°
平近点角 275.441°
近地点: 538.934km
远地点: 540.564km
周期: 95.438分钟
每日圈数: 15.088383
详细信息
固有亮度:
5
最大亮度:
2.5
卫星平台:
Starlink v1.5
覆盖范围:
全球
运营商:
太空探索技术公司
运营商所在国:
美国
制造商(研发单位):
太空探索技术公司
制造商所在国:
美国
使用方式:
暂无
卫星简介
星链(Starlink)计划是由太空探索技术公司(SpaceX)提出的一个巨型低轨卫星互联网星座项目,计划在2019年至2024年间在太空搭建由约1.2万颗卫星组成的“星链”网络,其中1584颗将部署在地球上空550千米处的近地轨道,并从2020年开始工作。该卫星仍在工作。
2D轨道图
3D轨道图
轨道高度分析图
轨道倾角分析图
轨道综合分析图
查看轨道综合分析图